Starlink 11344

operational
NORAD ID: 61688 Int'l Des: 2024-195 Owner: SPXS Country: US Constellation: starlink
LEOCIRCULAR

Über Starlink 11344

Beschreibung wird geladen...

Live-Position

3D-Globus wird geladen...

Nächste Überflüge

Höhenverlauf

Altitude vs Time

uPlot chart will show altitude changes over time

Zweizeiliger Elementsatz

1 61688U 24195B 25257.47867531 -.00000001 00000-0 48528-5 0 9996
2 61688 53.1611 175.2165 0001509 88.1640 271.9551 15.69701974 51350
Epoch: 14. Sept. 2025 • Age: 20 hours

Aktueller Status

Höhe 361.5 km
Geschwindigkeit 7.70 km/s
Subsatellitenpunkt 34.45°N, 153.14°W
Startdatum 30. Okt. 2024
Alter 0.8 years
Typ internet

Technische Details

Klassifizierung Payload
Masse 960.00 kg
Trockenmasse 910.00 kg
Gesamtmasse 960.00 kg
Länge 0.30 m
Durchmesser 4.10 m
Spannweite 29.00 m
Form Box + pan
Hersteller SPXS
Bus-Typ Starlink V2MD
Phasenstatus In Orbit
Besitzer/Staat SPXS/US

Große Konstellationen

Loading constellations...